Lid_Strength_Index
7 10 11 10 9 8 9 10 11 9 8 9 10 10 8 7 7 8 7 6 6 5 4 3 2 3 2 1 1 2 1 2 1 1 2 2 2 2 3 1 0 0 -0 -0
9 11 8 7 7 8 8 10 10 9 8 9 10 9 8 7 7 7 7 7 6 6 6 4 4 3 3 2 2 1 1 1 2 3 3 3 3 2 2 1 1 -0 0 -0
10 8 6 7 8 8 9 10 10 10 9 9 9 11 10 7 6 6 6 6 6 6 6 4 4 4 2 2 2 2 1 2 4 3 3 2 2 2 2 2 2 1 -0 0
9 7 7 8 8 8 11 8 8 8 10 13 10 15 11 9 8 7 7 6 6 5 5 4 4 4 3 2 1 1 2 2 2 2 2 2 3 4 3 3 2 1 1 1
8 8 9 8 8 7 9 7 8 9 11 13 11 14 12 9 10 8 7 6 6 5 5 5 4 3 3 2 2 2 3 2 1 2 1 2 3 3 2 3 2 2 2 2
8 6 7 8 6 6 6 8 9 10 12 15 12 12 12 11 10 8 7 6 5 5 5 5 4 3 3 3 4 2 2 2 1 2 1 2 3 3 3 3 3 3 3 3
8 8 7 6 8 7 9 12 15 16 15 16 11 12 13 9 8 8 7 7 6 5 4 4 4 4 4 4 4 3 3 3 2 2 2 2 2 3 3 3 3 4 4 3
11 12 8 6 8 10 10 11 15 19 17 16 11 14 11 8 7 7 6 7 6 6 6 5 5 5 4 4 4 4 4 4 4 2 2 2 2 3 3 3 3 4 4 2
12 11 7 6 7 8 9 12 10 13 13 15 13 11 8 8 8 7 7 6 7 7 6 5 5 5 4 4 4 4 4 5 4 3 2 2 2 3 4 3 3 4 3 3
9 12 7 7 7 7 9 8 13 13 19 18 14 13 13 9 8 7 8 7 6 6 6 5 5 4 5 4 4 5 5 5 5 3 3 2 3 3 3 2 3 3 3 3
8 10 10 8 9 10 10 11 11 11 13 17 18 15 9 10 8 8 8 7 7 7 6 6 5 5 5 5 5 5 5 5 4 3 3 3 4 3 2 4 4 4 4 4
8 11 13 10 7 7 9 11 11 15 15 14 14 14 8 8 7 7 7 7 7 7 5 5 5 5 5 5 5 5 5 5 3 3 3 3 3 4 3 4 4 4 4 4
9 12 16 13 10 8 9 8 9 10 11 14 17 15 7 7 7 7 7 7 6 6 6 6 6 5 5 5 4 5 5 5 3 3 4 4 3 5 4 4 4 5 4 4
7 11 13 16 13 10 11 9 9 11 15 14 13 11 9 8 8 8 8 7 7 6 5 5 6 6 5 4 4 5 5 4 3 3 4 3 4 4 4 5 5 4 4 4
9 13 12 10 9 8 9 9 9 11 11 13 11 11 10 9 8 8 7 7 6 6 5 5 5 6 5 5 5 5 5 4 4 4 4 4 4 4 4 5 5 4 4 3
8 12 11 11 9 8 10 8 9 9 9 9 10 11 8 7 7 7 7 6 6 6 5 5 4 4 4 5 5 4 5 5 4 5 5 4 4 4 4 4 5 5 4 3
10 11 13 15 10 10 13 10 9 9 8 9 12 10 8 8 7 7 7 6 6 5 5 5 4 4 5 5 4 5 6 6 5 5 4 4 4 4 5 5 5 4 4 3
10 11 12 15 13 18 10 7 7 8 8 8 8 8 7 7 6 6 6 6 5 5 5 5 5 5 5 4 5 5 6 6 5 5 4 4 4 4 5 5 5 4 4 3
9 11 14 16 16 12 10 9 9 9 10 7 8 7 7 6 6 6 5 5 5 5 5 6 5 5 4 4 4 5 6 7 5 5 5 4 4 4 5 6 5 4 4 3
8 9 12 14 17 18 12 8 6 7 14 7 7 8 7 7 10 9 5 5 5 4 5 5 6 4 5 4 4 6 7 7 7 5 5 4 4 4 6 6 5 4 3 3
12 12 14 15 16 13 9 7 5 14 13 7 6 7 7 9 7 6 5 5 4 4 5 5 5 5 5 4 4 6 8 8 5 5 4 4 4 5 5 6 3 4 4 3
13 14 15 14 17 17 6 7 11 9 7 6 6 6 7 6 5 5 5 5 5 4 5 5 6 6 5 5 6 7 9 7 5 5 5 4 4 5 5 5 5 5 4 4
13 11 13 12 13 8 7 7 7 6 7 6 7 5 5 5 5 5 5 5 4 4 5 5 6 5 5 5 6 7 8 6 5 5 5 4 5 5 6 6 6 5 5 4
8 8 10 11 8 7 6 6 6 6 6 5 5 5 5 6 5 5 4 4 4 4 5 6 6 6 6 5 5 7 7 5 5 6 5 5 6 6 6 6 6 6 7 6
8 8 9 10 8 7 6 6 5 5 5 5 5 4 5 5 5 4 4 4 4 4 5 5 6 7 6 5 5 6 6 5 5 5 5 5 6 6 6 6 7 7 7 8
7 9 10 11 7 8 8 6 4 5 5 4 5 5 4 4 4 4 4 4 4 4 5 6 7 7 7 6 5 6 5 5 5 6 5 6 7 6 5 6 5 8 8 8